Preview of NWS' New Version of Forecast
This preview is not operational and should not be used for support decisions.

Regional Weather Roundup (RWR)

Issued by National Weather Service (NWS)

                            
000
ASUS45 KABQ 212210
RWRNM 
NEW MEXICO REGIONAL WEATHER ROUNDUP
NATIONAL WEATHER SERVICE ALBUQUERQUE NM
400 PM MDT SAT SEP 21 2019

NOTE: "FAIR" MEANS FEW OR NO CLOUDS BELOW 12,000 FEET AGL WITH NO
       SIGNIFICANT WEATHER OR OBSTRUCTIONS TO VISION.

      THIS PRODUCT IS RELEASED AS TWO VERSIONS.  ONE VERSION NEAR
      THE TOP OF THE HOUR CONTAINING PRELIMINARY DATA FROM ALBUQUERQUE
      AND OTHER STATIONS.  A FINAL VERSION WITH ADDITIONAL DATA IS 
      ISSUED ABOUT 10 MINUTES AFTER THE HOUR.
 
NMZ501-503-504-510>518-212300-
NORTHWEST PLATEAU/NORTHCENTRAL MOUNTAINS
  
CITY           SKY/WX    TMP DP  RH WIND       PRES   REMARKS
FARMINGTON     FAIR      78  23  13 W8        30.01F                  
LOS ALAMOS     FAIR      72  29  20 SW12G17   30.13S                  
SANTA FE       FAIR      78  31  17 SW14G28   30.08F                  
TAOS           FAIR      74  25  16 W10G22    30.11F                  
ANGEL FIRE     FAIR      67  26  21 W9G21     30.18F                  

$$
NMZ402-403-502-505>509-212300-
WESTCENTRAL MOUNTAINS/SOUTHWEST MOUNTAINS
  
CITY           SKY/WX    TMP DP  RH WIND       PRES   REMARKS
GALLUP         FAIR      76  18  11 W21G31    30.09F                  
GRANTS         FAIR      76  29  18 SW13G18   30.10F                  
SILVER CITY    PTSUNNY   81  42  25 SW10G23   30.06F                  

$$
NMZ407-409-411-412-212300-
SOUTHERN DESERTS
  
CITY           SKY/WX    TMP DP  RH WIND       PRES   REMARKS
DEMING         FAIR      74  56  53 S21G29    30.02F                  
LAS CRUCES     FAIR      71  56  60 S12       30.07F                  
HOLLOMAN AFB   PTSUNNY   70  60  69 SE16      30.04F                  
ALAMOGORDO     FAIR      68  63  83 S16       30.04F                  
T OR C         LGT RAIN  85  47  26 S17G25    29.97F                  

$$
NMZ519>523-212300-
CENTRAL VALLEYS/CENTRAL HIGHLANDS
  
CITY           SKY/WX    TMP DP  RH WIND       PRES   REMARKS
ALBUQUERQUE    FAIR      80  36  20 VRB5G18   30.01F                  
DOUBLE EAGLE   PTSUNNY   77  37  24 S9        30.04F                  
MORIARTY ARPT  PTSUNNY   80  34  19 SW15G21   30.07F                  
CLINES CORNERS PTSUNNY   73  35  25 SW14G21   30.13F                  
BELEN          FAIR      83  35  17 S8        30.00F                  
SOCORRO        FAIR      86  37  17 S15G23    29.97F                  

$$
NMZ524>526-539-540-212300-
SOUTHCENTRAL MOUNTAINS
  
CITY           SKY/WX    TMP DP  RH WIND       PRES   REMARKS
RUIDOSO        FAIR      66  48  52 SW8       30.16F                  

$$
NMZ527>531-212300-
NORTHEAST HIGHLANDS/NORTHEAST PLAINS
  
CITY           SKY/WX    TMP DP  RH WIND       PRES   REMARKS
LAS VEGAS      FAIR      73  34  23 SW16G28   30.09F                  
RATON          FAIR      82  20  10 W9G23     29.97F                  
CLAYTON        FAIR      84  47  27 S25G35    29.94F                  

$$
NMZ532>537-212300-
EASTCENTRAL PLAINS
  
CITY           SKY/WX    TMP DP  RH WIND       PRES   REMARKS
TUCUMCARI      FAIR      83  58  42 SW15G23   29.92F                  
CANNON AFB     PTSUNNY   71  63  76 SE6       30.02S                  
CLOVIS AIRPORT RAIN      66  64  94 E7        30.03S FOG              

$$
NMZ028-029-033-538-212300-
SOUTHEAST PLAINS
  
CITY           SKY/WX    TMP DP  RH WIND       PRES   REMARKS
ROSWELL        LGT RAIN  69  64  84 S12       30.00F                  
ARTESIA        DRIZZLE   68  68 100 S7        30.01F                  
CARLSBAD       LGT RAIN  67  64  90 NW14      30.00F                  
HOBBS          CLOUDY    70  68  94 S15G26    30.01F                  


$$